Time,TemperatureF,DewpointF,PressureIn,WindDirection,WindDirectionDegrees,WindSpeedMPH,WindSpeedGustMPH,Humidity,HourlyPrecipIn,Conditions,Clouds,dailyrainin,SoftwareType,DateUTC
2013-02-28 00:00:00,38.9,35.4,29.64,WNW,286,0.0,0.0,87,0.00,,,0.04,Wunderground v.1.15,2013-02-28 05:00:00,
2013-02-28 00:05:00,39.0,35.2,29.64,WNW,286,0.0,0.0,86,0.00,,,0.00,Wunderground v.1.15,2013-02-28 05:05:00,
2013-02-28 00:10:00,39.1,35.3,29.64,WNW,286,0.0,0.0,86,0.00,,,0.00,Wunderground v.1.15,2013-02-28 05:10:00,
2013-02-28 00:15:00,39.2,35.7,29.64,WNW,286,0.0,5.0,87,0.00,,,0.00,Wunderground v.1.15,2013-02-28 05:15:00,
2013-02-28 00:20:00,39.3,35.8,29.64,WNW,286,0.0,5.0,87,0.00,,,0.00,Wunderground v.1.15,2013-02-28 05:20:00,
2013-02-28 00:25:00,39.3,35.8,29.64,WNW,286,0.0,0.0,87,0.00,,,0.00,Wunderground v.1.15,2013-02-28 05:25:00,
2013-02-28 00:30:00,39.4,35.9,29.64,WNW,286,0.0,3.0,87,0.00,,,0.00,Wunderground v.1.15,2013-02-28 05:30:00,
2013-02-28 00:35:00,39.5,36.0,29.64,WNW,286,0.0,4.0,87,0.00,,,0.00,Wunderground v.1.15,2013-02-28 05:35:00,
2013-02-28 00:40:00,39.6,36.0,29.63,WNW,286,1.0,4.0,87,0.00,,,0.00,Wunderground v.1.15,2013-02-28 05:40:00,
2013-02-28 00:45:00,39.7,36.1,29.63,WNW,286,0.0,0.0,87,0.00,,,0.00,Wunderground v.1.15,2013-02-28 05:45:00,
2013-02-28 00:50:00,39.7,36.1,29.63,WNW,286,0.0,1.0,87,0.00,,,0.00,Wunderground v.1.15,2013-02-28 05:50:00,
2013-02-28 00:55:00,39.7,36.4,29.63,WNW,286,0.0,0.0,88,0.00,,,0.00,Wunderground v.1.15,2013-02-28 05:55:00,
2013-02-28 01:00:00,39.8,36.2,29.63,WNW,286,0.0,1.0,87,0.00,,,0.00,Wunderground v.1.15,2013-02-28 06:00:00,
2013-02-28 01:05:00,39.7,36.1,29.64,WNW,286,0.0,1.0,87,0.00,,,0.00,Wunderground v.1.15,2013-02-28 06:05:00,
2013-02-28 01:10:00,39.5,36.0,29.64,WNW,286,0.0,1.0,87,0.00,,,0.00,Wunderground v.1.15,2013-02-28 06:10:00,
2013-02-28 01:15:00,39.4,35.9,29.64,WNW,286,0.0,3.0,87,0.00,,,0.00,Wunderground v.1.15,2013-02-28 06:15:00,
2013-02-28 01:20:00,39.3,35.8,29.64,WNW,286,0.0,3.0,87,0.00,,,0.00,Wunderground v.1.15,2013-02-28 06:20:00,
2013-02-28 01:25:00,39.1,35.6,29.64,WNW,286,0.0,1.0,87,0.00,,,0.00,Wunderground v.1.15,2013-02-28 06:25:00,
2013-02-28 01:30:00,39.0,35.5,29.64,WNW,286,0.0,2.0,87,0.00,,,0.00,Wunderground v.1.15,2013-02-28 06:30:00,
2013-02-28 01:35:00,38.9,35.4,29.64,WNW,286,0.0,0.0,87,0.00,,,0.00,Wunderground v.1.15,2013-02-28 06:35:00,
2013-02-28 01:40:00,38.8,35.6,29.64,WNW,286,0.0,0.0,88,0.00,,,0.00,Wunderground v.1.15,2013-02-28 06:40:00,
2013-02-28 01:45:00,38.7,35.5,29.64,WNW,286,0.0,0.0,88,0.00,,,0.00,Wunderground v.1.15,2013-02-28 06:45:00,
2013-02-28 01:50:00,38.5,35.3,29.64,WNW,286,0.0,0.0,88,0.00,,,0.00,Wunderground v.1.15,2013-02-28 06:50:00,
2013-02-28 01:55:00,38.4,35.4,29.64,WNW,286,0.0,1.0,89,0.00,,,0.00,Wunderground v.1.15,2013-02-28 06:55:00,
2013-02-28 02:00:00,38.3,35.3,29.64,WNW,286,0.0,1.0,89,0.00,,,0.00,Wunderground v.1.15,2013-02-28 07:00:00,
2013-02-28 02:05:00,38.2,35.2,29.64,WNW,286,0.0,0.0,89,0.00,,,0.00,Wunderground v.1.15,2013-02-28 07:05:00,
2013-02-28 02:10:00,38.1,35.4,29.64,WNW,286,0.0,0.0,90,0.00,,,0.00,Wunderground v.1.15,2013-02-28 07:10:00,
2013-02-28 02:15:00,38.0,35.3,29.63,WNW,286,1.0,5.0,90,0.00,,,0.00,Wunderground v.1.15,2013-02-28 07:15:00,
2013-02-28 02:20:00,38.0,35.3,29.63,WNW,286,0.0,5.0,90,0.00,,,0.00,Wunderground v.1.15,2013-02-28 07:20:00,
2013-02-28 02:25:00,38.0,35.3,29.63,WNW,286,0.0,4.0,90,0.00,,,0.00,Wunderground v.1.15,2013-02-28 07:25:00,
2013-02-28 02:30:00,38.1,35.1,29.63,WNW,286,0.0,5.0,89,0.00,,,0.00,Wunderground v.1.15,2013-02-28 07:30:00,
2013-02-28 02:35:00,38.3,35.3,29.63,WNW,286,0.0,2.0,89,0.00,,,0.00,Wunderground v.1.15,2013-02-28 07:35:00,
2013-02-28 02:40:00,38.4,35.2,29.63,WNW,286,1.0,2.0,88,0.00,,,0.00,Wunderground v.1.15,2013-02-28 07:40:00,
2013-02-28 02:45:00,38.4,35.2,29.63,WNW,286,2.0,5.0,88,0.00,,,0.00,Wunderground v.1.15,2013-02-28 07:45:00,
2013-02-28 02:50:00,38.6,34.8,29.63,WNW,282,2.0,10.0,86,0.00,,,0.00,Wunderground v.1.15,2013-02-28 07:50:00,
2013-02-28 02:55:00,38.8,34.7,29.63,WNW,282,1.0,6.0,85,0.00,,,0.00,Wunderground v.1.15,2013-02-28 07:55:00,
2013-02-28 03:00:00,38.9,34.5,29.63,WNW,282,2.0,6.0,84,0.00,,,0.00,Wunderground v.1.15,2013-02-28 08:00:00,
2013-02-28 03:05:00,39.1,34.7,29.63,WNW,282,0.0,7.0,84,0.00,,,0.00,Wunderground v.1.15,2013-02-28 08:05:00,
2013-02-28 03:10:00,39.1,34.7,29.63,WNW,284,0.0,7.0,84,0.00,,,0.00,Wunderground v.1.15,2013-02-28 08:10:00,
2013-02-28 03:15:00,39.0,34.3,29.63,WNW,284,4.0,11.0,83,0.00,,,0.00,Wunderground v.1.15,2013-02-28 08:15:00,
2013-02-28 03:20:00,39.0,34.3,29.64,WNW,300,2.0,12.0,83,0.00,,,0.00,Wunderground v.1.15,2013-02-28 08:20:00,
2013-02-28 03:25:00,39.1,34.4,29.63,WNW,300,2.0,5.0,83,0.00,,,0.00,Wunderground v.1.15,2013-02-28 08:25:00,
2013-02-28 03:30:00,38.9,34.2,29.63,WNW,299,0.0,7.0,83,0.00,,,0.00,Wunderground v.1.15,2013-02-28 08:30:00,
2013-02-28 03:35:00,38.8,34.4,29.63,WNW,299,0.0,6.0,84,0.00,,,0.00,Wunderground v.1.15,2013-02-28 08:35:00,
2013-02-28 03:40:00,38.5,34.4,29.63,WNW,299,0.0,6.0,85,0.00,,,0.00,Wunderground v.1.15,2013-02-28 08:40:00,
2013-02-28 03:45:00,38.2,34.4,29.63,WNW,299,0.0,8.0,86,0.00,,,0.00,Wunderground v.1.15,2013-02-28 08:45:00,
2013-02-28 03:50:00,37.9,34.1,29.63,WNW,298,2.0,8.0,86,0.00,,,0.00,Wunderground v.1.15,2013-02-28 08:50:00,
2013-02-28 03:55:00,37.6,33.8,29.63,WNW,298,0.0,5.0,86,0.00,,,0.00,Wunderground v.1.15,2013-02-28 08:55:00,
2013-02-28 04:00:00,37.3,33.5,29.63,WNW,298,0.0,5.0,86,0.00,,,0.00,Wunderground v.1.15,2013-02-28 09:00:00,
2013-02-28 04:05:00,36.9,33.1,29.64,WNW,298,1.0,6.0,86,0.00,,,0.00,Wunderground v.1.15,2013-02-28 09:05:00,
2013-02-28 04:10:00,36.4,32.6,29.64,NW,309,0.0,6.0,86,0.00,,,0.00,Wunderground v.1.15,2013-02-28 09:10:00,
2013-02-28 04:15:00,36.1,32.3,29.64,NW,309,0.0,2.0,86,0.00,,,0.00,Wunderground v.1.15,2013-02-28 09:15:00,
2013-02-28 04:20:00,35.7,32.2,29.64,NW,309,0.0,6.0,87,0.00,,,0.00,Wunderground v.1.15,2013-02-28 09:20:00,
2013-02-28 04:25:00,35.4,31.9,29.65,NW,309,0.0,4.0,87,0.00,,,0.00,Wunderground v.1.15,2013-02-28 09:25:00,
2013-02-28 04:30:00,35.1,31.6,29.65,NW,306,1.0,8.0,87,0.00,,,0.00,Wunderground v.1.15,2013-02-28 09:30:00,
2013-02-28 04:35:00,34.9,31.4,29.65,NW,306,0.0,3.0,87,0.00,,,0.00,Wunderground v.1.15,2013-02-28 09:35:00,
2013-02-28 04:40:00,34.8,31.3,29.65,NW,306,0.0,6.0,87,0.00,,,0.00,Wunderground v.1.15,2013-02-28 09:40:00,
2013-02-28 04:45:00,34.8,31.0,29.65,NW,304,6.0,9.0,86,0.00,,,0.00,Wunderground v.1.15,2013-02-28 09:45:00,
2013-02-28 04:50:00,35.0,30.9,29.65,WNW,302,3.0,9.0,85,0.00,,,0.00,Wunderground v.1.15,2013-02-28 09:50:00,
2013-02-28 04:55:00,35.3,30.9,29.65,WNW,301,1.0,9.0,84,0.00,,,0.00,Wunderground v.1.15,2013-02-28 09:55:00,
2013-02-28 05:00:00,35.5,30.8,29.65,WNW,301,6.0,9.0,83,0.00,,,0.00,Wunderground v.1.15,2013-02-28 10:00:00,
2013-02-28 05:05:00,35.5,30.8,29.65,WNW,300,0.0,9.0,83,0.00,,,0.00,Wunderground v.1.15,2013-02-28 10:05:00,
2013-02-28 05:10:00,35.5,30.8,29.65,WNW,300,0.0,9.0,83,0.00,,,0.00,Wunderground v.1.15,2013-02-28 10:10:00,
2013-02-28 05:15:00,35.3,30.4,29.65,WNW,300,0.0,6.0,82,0.00,,,0.00,Wunderground v.1.15,2013-02-28 10:15:00,
2013-02-28 05:20:00,35.1,30.2,29.65,WNW,300,0.0,6.0,82,0.00,,,0.00,Wunderground v.1.15,2013-02-28 10:20:00,
2013-02-28 05:25:00,34.9,30.0,29.65,WNW,300,0.0,2.0,82,0.00,,,0.00,Wunderground v.1.15,2013-02-28 10:25:00,
2013-02-28 05:30:00,34.6,29.7,29.65,WNW,300,1.0,4.0,82,0.00,,,0.00,Wunderground v.1.15,2013-02-28 10:30:00,
2013-02-28 05:35:00,34.4,29.5,29.65,WNW,300,2.0,6.0,82,0.00,,,0.00,Wunderground v.1.15,2013-02-28 10:35:00,
2013-02-28 05:40:00,34.4,29.5,29.65,WNW,300,1.0,6.0,82,0.00,,,0.00,Wunderground v.1.15,2013-02-28 10:40:00,
2013-02-28 05:45:00,34.4,29.5,29.65,WNW,300,0.0,9.0,82,0.00,,,0.00,Wunderground v.1.15,2013-02-28 10:45:00,
2013-02-28 05:50:00,34.4,29.5,29.65,WNW,300,0.0,9.0,82,0.00,,,0.00,Wunderground v.1.15,2013-02-28 10:50:00,
2013-02-28 05:55:00,34.4,29.5,29.65,WNW,300,2.0,5.0,82,0.00,,,0.00,Wunderground v.1.15,2013-02-28 10:55:00,
2013-02-28 06:00:00,34.2,29.0,29.66,WNW,300,3.0,5.0,81,0.00,,,0.00,Wunderground v.1.15,2013-02-28 11:00:00,
2013-02-28 06:05:00,34.1,29.2,29.66,WNW,300,0.0,5.0,82,0.00,,,0.00,Wunderground v.1.15,2013-02-28 11:05:00,
2013-02-28 06:10:00,33.9,29.0,29.66,WNW,300,0.0,5.0,82,0.00,,,0.00,Wunderground v.1.15,2013-02-28 11:10:00,
2013-02-28 06:15:00,33.7,28.8,29.66,WNW,300,0.0,0.0,82,0.00,,,0.00,Wunderground v.1.15,2013-02-28 11:15:00,
2013-02-28 06:20:00,33.4,28.5,29.66,WNW,300,0.0,0.0,82,0.00,,,0.00,Wunderground v.1.15,2013-02-28 11:20:00,
2013-02-28 06:25:00,33.2,28.3,29.66,WNW,300,0.0,0.0,82,0.00,,,0.00,Wunderground v.1.15,2013-02-28 11:25:00,
2013-02-28 06:30:00,32.9,28.0,29.66,WNW,300,0.0,0.0,82,0.00,,,0.00,Wunderground v.1.15,2013-02-28 11:30:00,
2013-02-28 06:35:00,32.5,27.6,29.66,WNW,300,0.0,0.0,82,0.00,,,0.00,Wunderground v.1.15,2013-02-28 11:35:00,
2013-02-28 06:40:00,32.1,27.5,29.66,WNW,300,0.0,0.0,83,0.00,,,0.00,Wunderground v.1.15,2013-02-28 11:40:00,
2013-02-28 06:45:00,31.5,27.5,29.67,WNW,300,0.0,0.0,85,0.00,,,0.00,Wunderground v.1.15,2013-02-28 11:45:00,
2013-02-28 06:50:00,31.1,27.4,29.67,WNW,300,0.0,0.0,86,0.00,,,0.00,Wunderground v.1.15,2013-02-28 11:50:00,
2013-02-28 06:55:00,30.8,27.4,29.67,WNW,300,0.0,0.0,87,0.00,,,0.00,Wunderground v.1.15,2013-02-28 11:55:00,
2013-02-28 07:00:00,30.5,27.1,29.67,WNW,300,0.0,0.0,87,0.00,,,0.00,Wunderground v.1.15,2013-02-28 12:00:00,
2013-02-28 07:05:00,30.3,26.9,29.67,WNW,300,0.0,0.0,87,0.00,,,0.00,Wunderground v.1.15,2013-02-28 12:05:00,
2013-02-28 07:10:00,30.2,26.8,29.67,WNW,300,0.0,0.0,87,0.00,,,0.00,Wunderground v.1.15,2013-02-28 12:10:00,
2013-02-28 07:15:00,30.2,27.1,29.67,WNW,300,0.0,0.0,88,0.00,,,0.00,Wunderground v.1.15,2013-02-28 12:15:00,
2013-02-28 07:20:00,30.4,27.3,29.67,WNW,300,0.0,3.0,88,0.00,,,0.00,Wunderground v.1.15,2013-02-28 12:20:00,
2013-02-28 07:25:00,30.8,27.9,29.67,WNW,300,0.0,0.0,89,0.00,,,0.00,Wunderground v.1.15,2013-02-28 12:25:00,
2013-02-28 07:30:00,31.1,28.2,29.67,WNW,300,0.0,1.0,89,0.00,,,0.00,Wunderground v.1.15,2013-02-28 12:30:00,
2013-02-28 07:35:00,31.5,28.6,29.67,WNW,300,0.0,2.0,89,0.00,,,0.00,Wunderground v.1.15,2013-02-28 12:35:00,
2013-02-28 07:40:00,31.9,29.0,29.67,WNW,300,0.0,3.0,89,0.00,,,0.00,Wunderground v.1.15,2013-02-28 12:40:00,
2013-02-28 07:45:00,32.4,29.2,29.67,WNW,299,0.0,5.0,88,0.00,,,0.00,Wunderground v.1.15,2013-02-28 12:45:00,
2013-02-28 07:50:00,33.3,29.3,29.66,WNW,296,0.0,9.0,85,0.00,,,0.00,Wunderground v.1.15,2013-02-28 12:50:00,
2013-02-28 07:55:00,34.3,29.7,29.66,WNW,294,0.0,6.0,83,0.00,,,0.00,Wunderground v.1.15,2013-02-28 12:55:00,
2013-02-28 08:00:00,34.7,29.5,29.66,WNW,294,0.0,6.0,81,0.00,,,0.00,Wunderground v.1.15,2013-02-28 13:00:00,
2013-02-28 08:05:00,35.1,29.6,29.67,WNW,294,2.0,4.0,80,0.00,,,0.00,Wunderground v.1.15,2013-02-28 13:05:00,
2013-02-28 08:10:00,35.4,29.5,29.67,WNW,293,0.0,7.0,79,0.00,,,0.00,Wunderground v.1.15,2013-02-28 13:10:00,
2013-02-28 08:15:00,36.0,29.8,29.67,WNW,292,0.0,5.0,78,0.00,,,0.00,Wunderground v.1.15,2013-02-28 13:15:00,
2013-02-28 08:20:00,36.5,30.0,29.67,WNW,291,0.0,6.0,77,0.00,,,0.00,Wunderground v.1.15,2013-02-28 13:20:00,
2013-02-28 08:25:00,37.0,30.5,29.67,West,273,6.0,11.0,77,0.00,,,0.00,Wunderground v.1.15,2013-02-28 13:25:00,
2013-02-28 08:30:00,37.6,30.4,29.67,West,275,1.0,11.0,75,0.00,,,0.00,Wunderground v.1.15,2013-02-28 13:30:00,
2013-02-28 08:35:00,38.2,31.0,29.67,West,267,1.0,7.0,75,0.00,,,0.00,Wunderground v.1.15,2013-02-28 13:35:00,
2013-02-28 08:40:00,38.8,31.2,29.67,West,267,2.0,7.0,74,0.00,,,0.00,Wunderground v.1.15,2013-02-28 13:40:00,
2013-02-28 08:45:00,39.7,31.8,29.67,West,264,4.0,10.0,73,0.00,,,0.00,Wunderground v.1.15,2013-02-28 13:45:00,
2013-02-28 08:50:00,40.3,31.6,29.67,West,263,1.0,10.0,71,0.00,,,0.00,Wunderground v.1.15,2013-02-28 13:50:00,
2013-02-28 08:55:00,40.2,31.2,29.67,SW,235,9.0,15.0,70,0.00,,,0.00,Wunderground v.1.15,2013-02-28 13:55:00,
2013-02-28 09:00:00,39.9,31.6,29.67,SW,214,1.0,15.0,72,0.00,,,0.00,Wunderground v.1.15,2013-02-28 14:00:00,
2013-02-28 09:05:00,40.0,32.0,29.67,WSW,239,3.0,11.0,73,0.00,,,0.00,Wunderground v.1.15,2013-02-28 14:05:00,
2013-02-28 09:10:00,40.1,31.8,29.67,WSW,242,1.0,11.0,72,0.00,,,0.00,Wunderground v.1.15,2013-02-28 14:10:00,
2013-02-28 09:15:00,40.1,31.4,29.67,WSW,248,2.0,6.0,71,0.00,,,0.00,Wunderground v.1.15,2013-02-28 14:15:00,
2013-02-28 09:20:00,40.4,31.7,29.66,WSW,251,0.0,7.0,71,0.00,,,0.00,Wunderground v.1.15,2013-02-28 14:20:00,
2013-02-28 09:25:00,41.5,33.1,29.66,WSW,251,2.0,5.0,72,0.00,,,0.00,Wunderground v.1.15,2013-02-28 14:25:00,
2013-02-28 09:30:00,42.9,33.4,29.66,WSW,254,0.0,10.0,69,0.00,,,0.00,Wunderground v.1.15,2013-02-28 14:30:00,
2013-02-28 09:35:00,43.4,33.5,29.66,WSW,250,7.0,12.0,68,0.00,,,0.00,Wunderground v.1.15,2013-02-28 14:35:00,
2013-02-28 09:40:00,43.5,33.3,29.66,SW,234,1.0,12.0,67,0.00,,,0.00,Wunderground v.1.15,2013-02-28 14:40:00,
2013-02-28 09:45:00,43.7,33.5,29.66,WSW,258,0.0,10.0,67,0.00,,,0.00,Wunderground v.1.15,2013-02-28 14:45:00,
2013-02-28 09:50:00,43.7,33.1,29.66,West,271,7.0,10.0,66,0.00,,,0.00,Wunderground v.1.15,2013-02-28 14:50:00,
2013-02-28 09:55:00,43.4,32.8,29.65,West,275,3.0,7.0,66,0.00,,,0.00,Wunderground v.1.15,2013-02-28 14:55:00,
2013-02-28 10:00:00,43.2,33.0,29.65,West,270,5.0,7.0,67,0.00,,,0.00,Wunderground v.1.15,2013-02-28 15:00:00,
2013-02-28 10:05:00,43.0,33.5,29.65,West,269,0.0,6.0,69,0.00,,,0.00,Wunderground v.1.15,2013-02-28 15:05:00,
2013-02-28 10:10:00,43.0,32.4,29.65,West,266,2.0,8.0,66,0.00,,,0.00,Wunderground v.1.15,2013-02-28 15:10:00,
2013-02-28 10:15:00,42.8,33.0,29.65,West,267,3.0,9.0,68,0.00,,,0.00,Wunderground v.1.15,2013-02-28 15:15:00,
2013-02-28 10:20:00,43.0,32.4,29.65,SW,233,1.0,10.0,66,0.00,,,0.00,Wunderground v.1.15,2013-02-28 15:20:00,
2013-02-28 10:25:00,43.1,32.1,29.65,West,276,1.0,10.0,65,0.00,,,0.00,Wunderground v.1.15,2013-02-28 15:25:00,
2013-02-28 10:30:00,43.0,32.4,29.65,WSW,248,2.0,11.0,66,0.00,,,0.00,Wunderground v.1.15,2013-02-28 15:30:00,
2013-02-28 10:35:00,42.8,32.2,29.66,WSW,257,4.0,13.0,66,0.00,,,0.00,Wunderground v.1.15,2013-02-28 15:35:00,
2013-02-28 10:40:00,42.7,32.1,29.65,WSW,246,4.0,13.0,66,0.00,,,0.00,Wunderground v.1.15,2013-02-28 15:40:00,
2013-02-28 10:45:00,42.7,32.5,29.65,West,267,2.0,7.0,67,0.00,,,0.00,Wunderground v.1.15,2013-02-28 15:45:00,
2013-02-28 10:50:00,42.7,32.1,29.65,SW,232,1.0,13.0,66,0.00,,,0.00,Wunderground v.1.15,2013-02-28 15:50:00,
2013-02-28 10:55:00,42.9,32.7,29.66,West,275,1.0,11.0,67,0.00,,,0.00,Wunderground v.1.15,2013-02-28 15:55:00,
2013-02-28 11:00:00,43.3,33.1,29.66,WNW,282,1.0,14.0,67,0.00,,,0.00,Wunderground v.1.15,2013-02-28 16:00:00,
2013-02-28 11:06:00,43.7,33.5,29.65,West,281,0.0,9.0,67,0.00,,,0.00,Wunderground v.1.15,2013-02-28 16:06:00,
2013-02-28 11:10:00,43.7,33.1,29.66,West,278,0.0,2.0,66,0.00,,,0.00,Wunderground v.1.15,2013-02-28 16:10:00,
2013-02-28 11:16:00,43.2,32.2,29.66,West,279,5.0,12.0,65,0.00,,,0.00,Wunderground v.1.15,2013-02-28 16:16:00,
2013-02-28 11:21:00,42.5,31.6,29.66,West,265,0.0,3.0,65,0.00,,,0.00,Wunderground v.1.15,2013-02-28 16:21:00,
2013-02-28 11:26:00,41.6,31.1,29.66,West,264,2.0,6.0,66,0.00,,,0.00,Wunderground v.1.15,2013-02-28 16:26:00,
2013-02-28 11:31:00,40.9,30.8,29.66,West,264,2.0,3.0,67,0.00,,,0.00,Wunderground v.1.15,2013-02-28 16:31:00,
2013-02-28 11:36:00,40.6,31.2,29.66,West,264,6.0,7.0,69,0.00,,,0.00,Wunderground v.1.15,2013-02-28 16:36:00,
2013-02-28 11:41:00,40.4,31.0,29.66,West,275,4.0,4.0,69,0.00,,,0.00,Wunderground v.1.15,2013-02-28 16:41:00,
2013-02-28 11:46:00,40.2,30.8,29.66,West,276,1.0,9.0,69,0.00,,,0.00,Wunderground v.1.15,2013-02-28 16:46:00,
2013-02-28 11:50:00,40.1,31.1,29.66,WNW,298,1.0,3.0,70,0.00,,,0.00,Wunderground v.1.15,2013-02-28 16:50:00,
2013-02-28 11:55:00,40.1,31.8,29.66,WNW,298,2.0,5.0,72,0.00,,,0.00,Wunderground v.1.15,2013-02-28 16:55:00,
2013-02-28 12:00:00,40.4,32.1,29.66,WNW,286,1.0,10.0,72,0.00,,,0.00,Wunderground v.1.15,2013-02-28 17:00:00,
2013-02-28 12:05:00,40.7,32.4,29.66,WNW,286,1.0,9.0,72,0.00,,,0.00,Wunderground v.1.15,2013-02-28 17:05:00,
2013-02-28 12:11:00,40.9,31.9,29.66,WNW,286,1.0,2.0,70,0.00,,,0.00,Wunderground v.1.15,2013-02-28 17:11:00,
2013-02-28 12:16:00,41.0,32.3,29.66,WNW,286,1.0,5.0,71,0.00,,,0.00,Wunderground v.1.15,2013-02-28 17:16:00,
2013-02-28 12:21:00,40.9,31.9,29.66,WNW,287,2.0,2.0,70,0.00,,,0.00,Wunderground v.1.15,2013-02-28 17:21:00,
2013-02-28 12:26:00,40.5,31.5,29.66,WNW,283,2.0,9.0,70,0.00,,,0.00,Wunderground v.1.15,2013-02-28 17:26:00,
2013-02-28 12:31:00,40.0,31.0,29.66,West,279,1.0,3.0,70,0.00,,,0.00,Wunderground v.1.15,2013-02-28 17:31:00,
2013-02-28 12:36:00,39.8,31.5,29.66,WNW,288,3.0,8.0,72,0.00,,,0.00,Wunderground v.1.15,2013-02-28 17:36:00,
2013-02-28 12:41:00,39.5,31.2,29.66,WNW,284,0.0,3.0,72,0.00,,,0.00,Wunderground v.1.15,2013-02-28 17:41:00,
2013-02-28 12:46:00,38.9,31.6,29.66,WSW,246,1.0,9.0,75,0.00,,,0.00,Wunderground v.1.15,2013-02-28 17:46:00,
2013-02-28 12:51:00,38.6,32.3,29.66,WSW,250,0.0,2.0,78,0.00,,,0.01,Wunderground v.1.15,2013-02-28 17:51:00,
2013-02-28 12:56:00,38.2,32.3,29.66,WSW,253,4.0,7.0,79,0.00,,,0.01,Wunderground v.1.15,2013-02-28 17:56:00,
2013-02-28 13:01:00,37.8,32.2,29.66,WSW,247,6.0,6.0,80,0.00,,,0.01,Wunderground v.1.15,2013-02-28 18:01:00,
2013-02-28 13:06:00,37.6,32.6,29.66,WSW,250,0.0,7.0,82,0.00,,,0.01,Wunderground v.1.15,2013-02-28 18:06:00,
2013-02-28 13:11:00,37.7,32.7,29.66,WSW,250,0.0,1.0,82,0.00,,,0.01,Wunderground v.1.15,2013-02-28 18:11:00,
2013-02-28 13:16:00,38.0,33.3,29.66,WSW,250,3.0,5.0,83,0.00,,,0.01,Wunderground v.1.15,2013-02-28 18:16:00,
2013-02-28 13:21:00,38.4,33.4,29.66,WSW,245,0.0,1.0,82,0.00,,,0.01,Wunderground v.1.15,2013-02-28 18:21:00,
2013-02-28 13:26:00,39.2,33.2,29.65,WSW,238,6.0,10.0,79,0.00,,,0.01,Wunderground v.1.15,2013-02-28 18:26:00,
2013-02-28 13:31:00,39.7,33.7,29.65,WSW,257,2.0,3.0,79,0.00,,,0.01,Wunderground v.1.15,2013-02-28 18:31:00,
2013-02-28 13:36:00,40.2,33.6,29.65,West,263,0.0,7.0,77,0.00,,,0.01,Wunderground v.1.15,2013-02-28 18:36:00,
2013-02-28 13:41:00,40.3,33.3,29.65,West,276,2.0,2.0,76,0.00,,,0.01,Wunderground v.1.15,2013-02-28 18:41:00,
2013-02-28 13:46:00,40.4,33.8,29.65,WNW,284,2.0,11.0,77,0.00,,,0.01,Wunderground v.1.15,2013-02-28 18:46:00,
2013-02-28 13:51:00,40.4,33.4,29.65,West,279,1.0,3.0,76,0.00,,,0.01,Wunderground v.1.15,2013-02-28 18:51:00,
2013-02-28 13:56:00,40.6,34.0,29.65,West,278,6.0,10.0,77,0.00,,,0.01,Wunderground v.1.15,2013-02-28 18:56:00,
2013-02-28 14:01:00,40.9,33.9,29.64,West,279,3.0,3.0,76,0.00,,,0.01,Wunderground v.1.15,2013-02-28 19:01:00,
2013-02-28 14:06:00,41.3,33.6,29.64,West,272,1.0,11.0,74,0.00,,,0.01,Wunderground v.1.15,2013-02-28 19:06:00,
2013-02-28 14:11:00,41.5,33.1,29.64,WNW,284,1.0,3.0,72,0.00,,,0.01,Wunderground v.1.15,2013-02-28 19:11:00,
2013-02-28 14:16:00,41.4,33.4,29.64,SW,232,0.0,13.0,73,0.00,,,0.01,Wunderground v.1.15,2013-02-28 19:16:00,
2013-02-28 14:21:00,41.3,32.6,29.64,SW,230,2.0,4.0,71,0.00,,,0.01,Wunderground v.1.15,2013-02-28 19:21:00,
2013-02-28 14:26:00,41.3,33.3,29.64,WNW,286,1.0,14.0,73,0.00,,,0.01,Wunderground v.1.15,2013-02-28 19:26:00,
2013-02-28 14:31:00,41.6,34.3,29.64,WNW,287,1.0,2.0,75,0.00,,,0.01,Wunderground v.1.15,2013-02-28 19:31:00,
2013-02-28 14:36:00,42.0,33.6,29.64,WNW,290,0.0,10.0,72,0.00,,,0.01,Wunderground v.1.15,2013-02-28 19:36:00,
2013-02-28 14:41:00,41.8,33.1,29.64,WNW,286,3.0,3.0,71,0.00,,,0.01,Wunderground v.1.15,2013-02-28 19:41:00,
2013-02-28 14:46:00,41.6,32.5,29.64,WNW,296,3.0,10.0,70,0.00,,,0.01,Wunderground v.1.15,2013-02-28 19:46:00,
2013-02-28 14:51:00,41.4,32.3,29.64,WNW,288,6.0,9.0,70,0.00,,,0.01,Wunderground v.1.15,2013-02-28 19:51:00,
2013-02-28 14:56:00,41.3,32.6,29.64,WNW,286,2.0,10.0,71,0.00,,,0.01,Wunderground v.1.15,2013-02-28 19:56:00,
2013-02-28 15:01:00,41.1,32.4,29.64,WNW,291,2.0,4.0,71,0.00,,,0.01,Wunderground v.1.15,2013-02-28 20:01:00,
2013-02-28 15:06:00,40.9,32.2,29.64,WNW,294,4.0,9.0,71,0.00,,,0.01,Wunderground v.1.15,2013-02-28 20:06:00,
2013-02-28 15:11:00,40.8,32.1,29.64,WNW,282,5.0,9.0,71,0.00,,,0.01,Wunderground v.1.15,2013-02-28 20:11:00,
2013-02-28 15:16:00,40.9,31.9,29.64,WNW,289,4.0,11.0,70,0.00,,,0.01,Wunderground v.1.15,2013-02-28 20:16:00,
2013-02-28 15:21:00,40.9,31.9,29.65,West,280,1.0,7.0,70,0.00,,,0.01,Wunderground v.1.15,2013-02-28 20:21:00,
2013-02-28 15:26:00,40.8,32.1,29.65,West,265,1.0,11.0,71,0.00,,,0.01,Wunderground v.1.15,2013-02-28 20:26:00,
2013-02-28 15:31:00,40.8,31.8,29.65,WNW,294,2.0,5.0,70,0.00,,,0.01,Wunderground v.1.15,2013-02-28 20:31:00,
2013-02-28 15:36:00,40.7,32.0,29.64,West,281,7.0,7.0,71,0.00,,,0.01,Wunderground v.1.15,2013-02-28 20:36:00,
2013-02-28 15:41:00,40.5,31.5,29.64,WSW,257,2.0,3.0,70,0.00,,,0.01,Wunderground v.1.15,2013-02-28 20:41:00,
2013-02-28 15:46:00,40.6,31.9,29.64,West,281,0.0,10.0,71,0.00,,,0.01,Wunderground v.1.15,2013-02-28 20:46:00,
2013-02-28 15:51:00,40.7,31.7,29.64,WSW,250,3.0,6.0,70,0.00,,,0.01,Wunderground v.1.15,2013-02-28 20:51:00,
2013-02-28 15:56:00,40.8,31.8,29.64,SW,232,6.0,9.0,70,0.00,,,0.01,Wunderground v.1.15,2013-02-28 20:56:00,
2013-02-28 16:01:00,40.7,31.7,29.64,WSW,256,4.0,5.0,70,0.00,,,0.01,Wunderground v.1.15,2013-02-28 21:01:00,
2013-02-28 16:06:00,40.9,31.5,29.65,WNW,284,2.0,12.0,69,0.00,,,0.01,Wunderground v.1.15,2013-02-28 21:06:00,
2013-02-28 16:11:00,41.0,31.6,29.65,NW,306,11.0,11.0,69,0.00,,,0.01,Wunderground v.1.15,2013-02-28 21:11:00,
2013-02-28 16:16:00,40.7,31.3,29.65,WNW,302,0.0,11.0,69,0.00,,,0.01,Wunderground v.1.15,2013-02-28 21:16:00,
2013-02-28 16:21:00,40.5,31.5,29.65,WNW,299,0.0,7.0,70,0.00,,,0.01,Wunderground v.1.15,2013-02-28 21:21:00,
2013-02-28 16:26:00,40.1,31.4,29.65,WNW,289,2.0,11.0,71,0.00,,,0.01,Wunderground v.1.15,2013-02-28 21:26:00,
2013-02-28 16:31:00,39.9,31.6,29.65,WNW,282,1.0,6.0,72,0.00,,,0.01,Wunderground v.1.15,2013-02-28 21:31:00,
2013-02-28 16:36:00,39.7,31.4,29.65,WNW,288,1.0,12.0,72,0.00,,,0.01,Wunderground v.1.15,2013-02-28 21:36:00,
2013-02-28 16:41:00,39.5,31.6,29.65,West,276,6.0,6.0,73,0.00,,,0.01,Wunderground v.1.15,2013-02-28 21:41:00,
2013-02-28 16:46:00,39.3,31.4,29.66,WNW,282,1.0,12.0,73,0.00,,,0.01,Wunderground v.1.15,2013-02-28 21:46:00,
2013-02-28 16:51:00,39.1,31.5,29.66,West,277,0.0,2.0,74,0.00,,,0.01,Wunderground v.1.15,2013-02-28 21:51:00,
2013-02-28 16:56:00,38.9,31.3,29.66,WSW,254,7.0,7.0,74,0.00,,,0.01,Wunderground v.1.15,2013-02-28 21:56:00,
2013-02-28 17:01:00,38.8,31.2,29.66,West,268,2.0,9.0,74,0.00,,,0.01,Wunderground v.1.15,2013-02-28 22:01:00,
2013-02-28 17:06:00,38.6,31.4,29.67,WNW,292,4.0,9.0,75,0.00,,,0.01,Wunderground v.1.15,2013-02-28 22:06:00,
2013-02-28 17:11:00,38.5,31.6,29.67,WNW,294,4.0,4.0,76,0.00,,,0.01,Wunderground v.1.15,2013-02-28 22:11:00,
2013-02-28 17:16:00,38.3,31.7,29.67,WNW,290,3.0,12.0,77,0.00,,,0.01,Wunderground v.1.15,2013-02-28 22:16:00,
2013-02-28 17:21:00,38.2,31.6,29.67,WSW,249,0.0,3.0,77,0.00,,,0.01,Wunderground v.1.15,2013-02-28 22:21:00,
2013-02-28 17:26:00,38.1,31.8,29.67,WNW,290,0.0,12.0,78,0.00,,,0.01,Wunderground v.1.15,2013-02-28 22:26:00,
2013-02-28 17:31:00,38.0,31.7,29.67,WNW,286,0.0,6.0,78,0.00,,,0.01,Wunderground v.1.15,2013-02-28 22:31:00,
2013-02-28 17:36:00,37.9,31.7,29.67,WNW,290,0.0,9.0,78,0.00,,,0.01,Wunderground v.1.15,2013-02-28 22:36:00,
2013-02-28 17:41:00,37.9,31.7,29.68,WNW,294,4.0,5.0,78,0.00,,,0.01,Wunderground v.1.15,2013-02-28 22:41:00,
2013-02-28 17:46:00,37.8,31.2,29.68,WNW,284,2.0,10.0,77,0.00,,,0.01,Wunderground v.1.15,2013-02-28 22:46:00,
2013-02-28 17:51:00,37.7,31.1,29.68,WNW,296,1.0,4.0,77,0.00,,,0.01,Wunderground v.1.15,2013-02-28 22:51:00,
2013-02-28 17:56:00,37.7,31.1,29.68,WNW,296,1.0,6.0,77,0.00,,,0.01,Wunderground v.1.15,2013-02-28 22:56:00,
2013-02-28 18:01:00,37.7,31.1,29.69,WNW,296,1.0,5.0,77,0.00,,,0.01,Wunderground v.1.15,2013-02-28 23:01:00,
2013-02-28 18:06:00,37.7,31.1,29.69,WNW,292,0.0,9.0,77,0.00,,,0.01,Wunderground v.1.15,2013-02-28 23:06:00,
2013-02-28 18:11:00,37.6,31.0,29.69,WNW,292,2.0,3.0,77,0.00,,,0.01,Wunderground v.1.15,2013-02-28 23:11:00,
2013-02-28 18:16:00,37.6,31.0,29.69,WNW,292,2.0,9.0,77,0.00,,,0.01,Wunderground v.1.15,2013-02-28 23:16:00,
2013-02-28 18:21:00,37.5,30.9,29.69,WNW,292,0.0,2.0,77,0.00,,,0.01,Wunderground v.1.15,2013-02-28 23:21:00,
2013-02-28 18:26:00,37.5,31.3,29.70,WNW,292,5.0,6.0,78,0.00,,,0.01,Wunderground v.1.15,2013-02-28 23:26:00,
2013-02-28 18:31:00,37.5,31.3,29.70,WNW,291,2.0,4.0,78,0.00,,,0.01,Wunderground v.1.15,2013-02-28 23:31:00,
2013-02-28 18:36:00,37.5,30.9,29.70,WNW,291,2.0,6.0,77,0.00,,,0.01,Wunderground v.1.15,2013-02-28 23:36:00,
2013-02-28 18:41:00,37.5,31.3,29.70,WNW,292,1.0,4.0,78,0.00,,,0.01,Wunderground v.1.15,2013-02-28 23:41:00,
2013-02-28 18:46:00,37.5,31.3,29.70,WNW,290,0.0,6.0,78,0.00,,,0.01,Wunderground v.1.15,2013-02-28 23:46:00,
2013-02-28 18:51:00,37.4,31.2,29.70,WNW,290,0.0,4.0,78,0.00,,,0.01,Wunderground v.1.15,2013-02-28 23:51:00,
2013-02-28 18:56:00,37.4,31.5,29.70,WNW,290,0.0,4.0,79,0.00,,,0.01,Wunderground v.1.15,2013-02-28 23:56:00,
2013-02-28 19:01:00,37.3,31.4,29.70,WNW,291,1.0,5.0,79,0.00,,,0.01,Wunderground v.1.15,2013-03-01 00:01:00,
2013-02-28 19:06:00,37.3,31.1,29.70,WNW,292,0.0,9.0,78,0.00,,,0.01,Wunderground v.1.15,2013-03-01 00:06:00,
2013-02-28 19:11:00,37.3,31.1,29.70,WNW,292,3.0,3.0,78,0.00,,,0.01,Wunderground v.1.15,2013-03-01 00:11:00,
2013-02-28 19:16:00,37.3,31.1,29.70,WNW,292,3.0,5.0,78,0.00,,,0.01,Wunderground v.1.15,2013-03-01 00:16:00,
2013-02-28 19:21:00,37.3,31.1,29.71,WNW,293,2.0,5.0,78,0.00,,,0.01,Wunderground v.1.15,2013-03-01 00:21:00,
2013-02-28 19:26:00,37.3,31.1,29.71,WNW,293,1.0,5.0,78,0.00,,,0.01,Wunderground v.1.15,2013-03-01 00:26:00,
2013-02-28 19:31:00,37.3,31.1,29.71,WNW,293,3.0,3.0,78,0.00,,,0.01,Wunderground v.1.15,2013-03-01 00:31:00,
2013-02-28 19:36:00,37.3,31.4,29.71,WNW,293,3.0,3.0,79,0.00,,,0.01,Wunderground v.1.15,2013-03-01 00:36:00,
2013-02-28 19:41:00,37.3,31.1,29.71,WNW,293,1.0,4.0,78,0.00,,,0.01,Wunderground v.1.15,2013-03-01 00:41:00,
2013-02-28 19:46:00,37.2,31.3,29.71,WNW,292,2.0,7.0,79,0.00,,,0.01,Wunderground v.1.15,2013-03-01 00:46:00,
2013-02-28 19:51:00,37.2,31.3,29.70,WNW,297,0.0,1.0,79,0.00,,,0.01,Wunderground v.1.15,2013-03-01 00:51:00,
2013-02-28 19:57:00,37.2,31.3,29.70,WNW,296,2.0,7.0,79,0.00,,,0.01,Wunderground v.1.15,2013-03-01 00:57:00,
2013-02-28 20:02:00,37.2,31.0,29.70,WNW,295,0.0,3.0,78,0.00,,,0.01,Wunderground v.1.15,2013-03-01 01:02:00,
2013-02-28 20:07:00,37.2,31.0,29.71,WNW,294,1.0,7.0,78,0.00,,,0.01,Wunderground v.1.15,2013-03-01 01:07:00,
2013-02-28 20:12:00,37.2,31.0,29.71,WNW,294,3.0,5.0,78,0.00,,,0.01,Wunderground v.1.15,2013-03-01 01:12:00,
2013-02-28 20:17:00,37.3,30.7,29.71,WNW,294,1.0,7.0,77,0.00,,,0.01,Wunderground v.1.15,2013-03-01 01:17:00,
2013-02-28 20:22:00,37.4,30.8,29.72,WNW,293,0.0,4.0,77,0.00,,,0.01,Wunderground v.1.15,2013-03-01 01:22:00,
2013-02-28 20:27:00,37.5,30.9,29.71,WNW,292,0.0,9.0,77,0.00,,,0.01,Wunderground v.1.15,2013-03-01 01:27:00,
2013-02-28 20:32:00,37.5,30.9,29.72,WNW,289,2.0,6.0,77,0.00,,,0.01,Wunderground v.1.15,2013-03-01 01:32:00,
2013-02-28 20:37:00,37.5,30.9,29.71,WNW,288,1.0,9.0,77,0.00,,,0.01,Wunderground v.1.15,2013-03-01 01:37:00,
2013-02-28 20:42:00,37.5,30.9,29.72,WNW,286,1.0,10.0,77,0.00,,,0.01,Wunderground v.1.15,2013-03-01 01:42:00,
2013-02-28 20:47:00,37.5,30.9,29.72,WNW,286,0.0,10.0,77,0.00,,,0.01,Wunderground v.1.15,2013-03-01 01:47:00,
2013-02-28 20:52:00,37.5,30.9,29.72,WNW,286,1.0,7.0,77,0.00,,,0.01,Wunderground v.1.15,2013-03-01 01:52:00,
2013-02-28 20:57:00,37.5,30.9,29.72,WNW,288,3.0,7.0,77,0.00,,,0.01,Wunderground v.1.15,2013-03-01 01:57:00,
2013-02-28 21:02:00,37.5,30.9,29.72,WNW,288,0.0,2.0,77,0.00,,,0.01,Wunderground v.1.15,2013-03-01 02:02:00,
2013-02-28 21:07:00,37.5,30.9,29.72,WNW,288,1.0,7.0,77,0.00,,,0.01,Wunderground v.1.15,2013-03-01 02:07:00,
2013-02-28 21:12:00,37.5,31.3,29.72,WNW,288,3.0,3.0,78,0.00,,,0.01,Wunderground v.1.15,2013-03-01 02:12:00,
2013-02-28 21:17:00,37.5,31.3,29.72,WNW,283,2.0,10.0,78,0.00,,,0.01,Wunderground v.1.15,2013-03-01 02:17:00,
2013-02-28 21:22:00,37.5,30.9,29.72,WNW,285,0.0,9.0,77,0.00,,,0.01,Wunderground v.1.15,2013-03-01 02:22:00,
2013-02-28 21:27:00,37.6,31.4,29.73,WNW,286,5.0,10.0,78,0.00,,,0.01,Wunderground v.1.15,2013-03-01 02:27:00,
2013-02-28 21:32:00,37.6,31.4,29.72,WNW,284,0.0,4.0,78,0.00,,,0.01,Wunderground v.1.15,2013-03-01 02:32:00,
2013-02-28 21:37:00,37.5,31.3,29.72,WNW,286,5.0,7.0,78,0.00,,,0.01,Wunderground v.1.15,2013-03-01 02:37:00,
2013-02-28 21:42:00,37.6,31.4,29.72,WNW,288,1.0,4.0,78,0.00,,,0.01,Wunderground v.1.15,2013-03-01 02:42:00,
2013-02-28 21:47:00,37.6,31.4,29.72,WNW,288,2.0,6.0,78,0.00,,,0.01,Wunderground v.1.15,2013-03-01 02:47:00,
2013-02-28 21:52:00,37.6,31.4,29.72,WNW,288,2.0,5.0,78,0.00,,,0.01,Wunderground v.1.15,2013-03-01 02:52:00,
2013-02-28 21:57:00,37.6,31.4,29.72,WNW,288,0.0,5.0,78,0.00,,,0.01,Wunderground v.1.15,2013-03-01 02:57:00,
2013-02-28 22:02:00,37.5,31.6,29.72,WNW,288,5.0,5.0,79,0.00,,,0.01,Wunderground v.1.15,2013-03-01 03:02:00,
2013-02-28 22:07:00,37.5,31.6,29.72,WNW,288,3.0,5.0,79,0.00,,,0.01,Wunderground v.1.15,2013-03-01 03:07:00,
2013-02-28 22:12:00,37.5,31.6,29.72,WNW,288,1.0,3.0,79,0.00,,,0.01,Wunderground v.1.15,2013-03-01 03:12:00,
2013-02-28 22:17:00,37.5,31.6,29.72,WNW,288,5.0,10.0,79,0.00,,,0.01,Wunderground v.1.15,2013-03-01 03:17:00,
2013-02-28 22:22:00,37.5,31.6,29.72,WNW,289,2.0,3.0,79,0.00,,,0.01,Wunderground v.1.15,2013-03-01 03:22:00,
2013-02-28 22:27:00,37.5,31.6,29.72,WNW,289,0.0,5.0,79,0.00,,,0.01,Wunderground v.1.15,2013-03-01 03:27:00,
2013-02-28 22:32:00,37.5,31.6,29.72,WNW,289,3.0,6.0,79,0.00,,,0.01,Wunderground v.1.15,2013-03-01 03:32:00,
2013-02-28 22:37:00,37.5,31.6,29.72,WNW,290,0.0,13.0,79,0.00,,,0.01,Wunderground v.1.15,2013-03-01 03:37:00,
2013-02-28 22:42:00,37.5,31.6,29.72,WNW,290,0.0,5.0,79,0.00,,,0.01,Wunderground v.1.15,2013-03-01 03:42:00,
2013-02-28 22:47:00,37.5,31.6,29.72,WNW,290,3.0,6.0,79,0.00,,,0.01,Wunderground v.1.15,2013-03-01 03:47:00,
2013-02-28 22:52:00,37.4,31.8,29.72,WNW,290,0.0,6.0,80,0.00,,,0.01,Wunderground v.1.15,2013-03-01 03:52:00,
2013-02-28 22:57:00,37.4,31.8,29.72,WNW,290,1.0,7.0,80,0.00,,,0.01,Wunderground v.1.15,2013-03-01 03:57:00,
2013-02-28 23:02:00,37.4,31.8,29.72,WNW,288,2.0,4.0,80,0.00,,,0.01,Wunderground v.1.15,2013-03-01 04:02:00,
2013-02-28 23:07:00,37.4,31.8,29.72,WNW,288,2.0,7.0,80,0.00,,,0.01,Wunderground v.1.15,2013-03-01 04:07:00,
2013-02-28 23:12:00,37.3,31.7,29.72,WNW,288,2.0,5.0,80,0.00,,,0.01,Wunderground v.1.15,2013-03-01 04:12:00,
2013-02-28 23:17:00,37.2,31.9,29.72,WNW,288,2.0,7.0,81,0.00,,,0.01,Wunderground v.1.15,2013-03-01 04:17:00,
2013-02-28 23:22:00,37.2,31.9,29.72,WNW,294,6.0,6.0,81,0.00,,,0.01,Wunderground v.1.15,2013-03-01 04:22:00,
2013-02-28 23:27:00,37.1,31.8,29.72,WNW,293,1.0,9.0,81,0.00,,,0.01,Wunderground v.1.15,2013-03-01 04:27:00,
2013-02-28 23:32:00,37.1,31.8,29.72,WNW,292,0.0,7.0,81,0.00,,,0.01,Wunderground v.1.15,2013-03-01 04:32:00,
2013-02-28 23:37:00,37.0,32.0,29.72,WNW,292,6.0,8.0,82,0.00,,,0.01,Wunderground v.1.15,2013-03-01 04:37:00,
2013-02-28 23:42:00,37.0,32.0,29.72,WNW,292,0.0,5.0,82,0.00,,,0.01,Wunderground v.1.15,2013-03-01 04:42:00,
2013-02-28 23:47:00,37.0,32.0,29.72,WNW,292,0.0,5.0,82,0.00,,,0.01,Wunderground v.1.15,2013-03-01 04:47:00,
2013-02-28 23:52:00,36.9,31.9,29.72,WNW,292,1.0,1.0,82,0.00,,,0.01,Wunderground v.1.15,2013-03-01 04:52:00,
2013-02-28 23:57:00,36.9,31.9,29.72,WNW,292,2.0,4.0,82,0.00,,,0.01,Wunderground v.1.15,2013-03-01 04:57:00,